Regional Weather Roundup
Issued by NWS

Home | Current Version | Previous Version | Graphics & Text | Print | Product List | Glossary On
Versions: 1 2 3 4 5 6 7 8 9 10 11 12 13 14 15 16 17 18 19 20 21 22 23 24 25 26 27 28 29 30 31 32 33 34 35 36 37 38 39 40 41 42 43 44 45 46 47 48 49 50
781
ASUS44 KMEG 181410
RWRTN
TENNESSEE HOURLY STATE WEATHER ROUNDUP
NATIONAL WEATHER SERVICE MEMPHIS TN
800 AM CST SAT NOV 18 2017

TNZ002-004-019-021-049-052-054-088>092-181500-
WEST TENNESSEE

CITY           SKY/WX    TMP DP  RH WIND       PRES   REMARKS
MEMPHIS INTL   CLOUDY    69  62  78 SW18G35   29.66S
NWS MEMPHIS      N/A     69 N/A N/A MISG        N/A
JACKSON        CLOUDY    67  61  81 SW17G29   29.66S
DYERSBURG      CLOUDY    70  61  73 SW12G25   29.60F
SOMERVILLE     CLOUDY    68  61  77 S14G22    29.67R
COVINGTON      CLOUDY    70  61  73 SW20G28   29.63F
UNION CITY     CLOUDY    68  61  77 S18G28    29.57F HAZE
BOLIVAR        CLOUDY    68  61  77 S17G26    29.68S
PARIS          CLOUDY    66  59  77 S18G24    29.61F
HUNTINGDON     CLOUDY    68  61  77 S15G26    29.64S
LEXINGTON      CLOUDY    66  59  77 S20G29    29.68S
SELMER         CLOUDY    64  61  88 S12G25    29.70F
SAVANNAH       CLOUDY    66  61  82 S22G29    29.71F
$$

TNZ008-025-027-028-033-062-065-066-181500-
NORTH MIDDLE TENNESSEE

CITY           SKY/WX    TMP DP  RH WIND       PRES   REMARKS
NASHVILLE      CLOUDY    62  55  77 S21G30    29.73F
PORTLAND       CLOUDY    61  55  82 S17G28    29.70S
CLARKSVILLE    CLOUDY    64  56  75 S8        29.66S
SMYRNA         CLOUDY    62  56  80 S14G25    29.76F
COOKEVILLE     CLOUDY    61  50  67 S14G22    29.80F
GALLATIN       CLOUDY    63  55  77 S13G23    29.75F
CROSSVILLE     CLOUDY    52  42  69 S8G18     29.86F
$$

TNZ061-075-076-078-094-096-097-181500-
SOUTH MIDDLE TENNESSEE

CITY           SKY/WX    TMP DP  RH WIND       PRES   REMARKS
FAYETTEVILLE   CLOUDY    61  55  82 S18       29.83F
TULLAHOMA      CLOUDY    61  55  82 S16G26    29.82F
WINCHESTER     CLOUDY    59  52  77 S13       29.87S
MCMINNVILLE    CLOUDY    61  54  77 S16G26    29.81F
COLUMBIA       CLOUDY    63  59  88 S22G29    29.72F
SHELBYVILLE    CLOUDY    61  55  82 S15G30    29.80F
$$

TNZ017-018-042-046-047-181500-
NORTHEAST TENNESSEE

CITY           SKY/WX    TMP DP  RH WIND       PRES   REMARKS
TRI CITIES     PTSUNNY   49  41  74 N3        29.89F
ELIZABETHTON   CLOUDY    50  34  53 NE7       29.91F
$$

TNZ012-013-036-069-073-074-181500-
CENTRAL EAST TENNESSEE

CITY           SKY/WX    TMP DP  RH WIND       PRES   REMARKS
KNOXVILLE      CLOUDY    58  47  66 S10       29.87F
OAK RIDGE      CLOUDY    53  44  71 SW3       29.90F
DOWNTOWN KNOXV CLOUDY    52  46  82 CALM      29.88F
GATLINBURG     CLOUDY    45  39  81 CALM      29.88F
MORRISTOWN     CLOUDY    52  39  62 CALM      29.88S
JACKSBORO      CLOUDY    57  41  54 S12G22    29.88F
$$

TNZ083-085-099-181500-
SOUTHEAST TENNESSEE

CITY           SKY/WX    TMP DP  RH WIND       PRES   REMARKS
CHATTANOOGA    CLOUDY    56  43  61 S8        29.93F
$$

SKY/WX REPORTED AS FAIR MEANS FEW OR NO CLOUDS BELOW
12 THOUSAND FEET.





USA.gov is the U.S. government's official web portal to all federal, state and local government web resources and services.